| time (UTC) | temp F | wind direction | speed knots | gust knots | rain 1hr in | rain 24hr in | rain mn in | humidity % | barometer mb |
| 20260503060256 | 45 | 223 | 0.0 | 0.0 | 0.00 | 0.00 | 0.00 | 95 | 1014.1 |
| 20260503054743 | 45 | 214 | 0.0 | 0.0 | 0.00 | 0.00 | 0.00 | 95 | 1014.2 |
| 20260503054240 | 46 | 213 | 0.0 | 0.0 | 0.00 | 0.00 | 0.00 | 95 | 1014.2 |
| 20260503053738 | 46 | 214 | 0.0 | 0.0 | 0.00 | 0.00 | 0.00 | 95 | 1014.0 |
| 20260503053237 | 46 | 214 | 0.0 | 0.0 | 0.00 | 0.00 | 0.00 | 95 | 1013.8 |
| 20260503052732 | 46 | 212 | 0.0 | 0.0 | 0.00 | 0.00 | 0.00 | 95 | 1014.0 |
| 20260503052229 | 46 | 211 | 0.0 | 0.0 | 0.00 | 0.00 | 0.00 | 95 | 1014.0 |
| 20260503051724 | 47 | 211 | 0.0 | 0.0 | 0.00 | 0.00 | 0.00 | 95 | 1014.3 |
| 20260503051222 | 47 | 211 | 0.0 | 0.0 | 0.00 | 0.00 | 0.00 | 95 | 1014.2 |
| 20260503050719 | 47 | 211 | 0.0 | 0.0 | 0.00 | 0.00 | 0.00 | 95 | 1014.2 |
| 20260503050215 | 47 | 211 | 0.0 | 0.0 | 0.00 | 0.00 | 0.00 | 95 | 1014.3 |
| 20260503045713 | 48 | 212 | 0.0 | 0.0 | 0.00 | 0.00 | 0.00 | 95 | 1014.2 |
| 20260503045210 | 48 | 212 | 0.0 | 0.0 | 0.00 | 0.00 | 0.00 | 95 | 1014.5 |
| 20260503044707 | 48 | 212 | 0.0 | 0.0 | 0.00 | 0.00 | 0.00 | 95 | 1014.2 |
| 20260503044204 | 48 | 211 | 0.0 | 0.0 | 0.00 | 0.00 | 0.00 | 95 | 1014.4 |
| 20260503043700 | 48 | 210 | 0.0 | 0.0 | 0.00 | 0.00 | 0.00 | 95 | 1014.1 |
| 20260503043158 | 47 | 209 | 0.0 | 0.0 | 0.00 | 0.00 | 0.00 | 95 | 1014.3 |
| 20260503042654 | 47 | 209 | 0.0 | 0.0 | 0.00 | 0.00 | 0.00 | 95 | 1014.0 |
| 20260503042150 | 47 | 209 | 0.0 | 0.0 | 0.00 | 0.00 | 0.00 | 95 | 1014.0 |
| 20260503041647 | 47 | 209 | 0.0 | 0.0 | 0.00 | 0.00 | 0.00 | 95 | 1014.1 |
| 20260503041144 | 47 | 209 | 0.0 | 0.0 | 0.00 | 0.00 | 0.00 | 95 | 1014.0 |
| 20260503040642 | 47 | 209 | 0.0 | 0.0 | 0.00 | 0.00 | 0.00 | 95 | 1014.0 |
| 20260503040139 | 47 | 209 | 0.0 | 0.0 | 0.00 | 0.00 | 0.00 | 95 | 1013.8 |
| 20260503035635 | 47 | 209 | 0.0 | 0.0 | 0.00 | 0.28 | 0.28 | 95 | 1013.9 |
| 20260503035133 | 48 | 209 | 0.0 | 0.0 | 0.00 | 0.28 | 0.28 | 95 | 1013.9 |
| 20260503034631 | 48 | 210 | 0.0 | 0.0 | 0.00 | 0.28 | 0.28 | 95 | 1013.8 |
| 20260503034128 | 48 | 209 | 0.0 | 0.0 | 0.00 | 0.28 | 0.28 | 95 | 1013.7 |
| 20260503033624 | 48 | 209 | 0.0 | 0.0 | 0.00 | 0.28 | 0.28 | 95 | 1013.7 |
| 20260503033122 | 48 | 209 | 0.0 | 0.0 | 0.00 | 0.28 | 0.28 | 95 | 1013.6 |
| 20260503032620 | 48 | 209 | 0.0 | 0.0 | 0.00 | 0.28 | 0.28 | 95 | 1013.6 |
| 20260503032119 | 48 | 182 | 0.0 | 0.0 | 0.00 | 0.28 | 0.28 | 95 | 1013.5 |
| 20260503031616 | 48 | 182 | 0.0 | 0.0 | 0.00 | 0.28 | 0.28 | 95 | 1013.5 |
| 20260503031113 | 48 | 182 | 0.0 | 0.0 | 0.00 | 0.28 | 0.28 | 95 | 1013.4 |
| 20260503030609 | 48 | 182 | 0.0 | 0.0 | 0.00 | 0.28 | 0.28 | 95 | 1013.3 |
| 20260503030106 | 48 | 182 | 0.0 | 0.0 | 0.00 | 0.28 | 0.28 | 95 | 1013.4 |
| 20260503025603 | 48 | 182 | 0.0 | 0.0 | 0.00 | 0.28 | 0.28 | 95 | 1013.4 |
| 20260503025101 | 48 | 182 | 0.0 | 0.0 | 0.00 | 0.28 | 0.28 | 95 | 1013.5 |
| 20260503024556 | 48 | 182 | 0.0 | 0.0 | 0.00 | 0.28 | 0.28 | 95 | 1013.3 |
| 20260503024054 | 48 | 182 | 0.0 | 0.0 | 0.00 | 0.28 | 0.28 | 95 | 1013.3 |
| 20260503023550 | 48 | 182 | 0.0 | 0.0 | 0.00 | 0.28 | 0.28 | 95 | 1013.3 |
| 20260503023048 | 49 | 182 | 0.0 | 0.0 | 0.00 | 0.28 | 0.28 | 95 | 1013.2 |
| 20260503022544 | 49 | 182 | 0.0 | 0.0 | 0.00 | 0.28 | 0.28 | 95 | 1013.2 |
| 20260503022039 | 49 | 182 | 0.0 | 0.0 | 0.00 | 0.28 | 0.28 | 95 | 1013.0 |
| 20260503021536 | 49 | 182 | 0.0 | 0.0 | 0.00 | 0.28 | 0.28 | 95 | 1013.0 |
| 20260503021033 | 49 | 181 | 0.0 | 0.9 | 0.00 | 0.28 | 0.28 | 95 | 1012.8 |
| 20260503020530 | 49 | 182 | 0.0 | 0.0 | 0.00 | 0.28 | 0.28 | 95 | 1013.1 |
| 20260503020027 | 49 | 182 | 0.0 | 0.0 | 0.00 | 0.28 | 0.28 | 95 | 1013.0 |
| 20260503015523 | 49 | 182 | 0.0 | 0.0 | 0.00 | 0.28 | 0.28 | 95 | 1013.2 |
| 20260503015021 | 49 | 182 | 0.0 | 0.0 | 0.00 | 0.28 | 0.28 | 95 | 1013.1 |
| 20260503014516 | 49 | 182 | 0.0 | 0.0 | 0.00 | 0.28 | 0.28 | 95 | 1013.3 |
| 20260503014015 | 49 | 182 | 0.0 | 0.0 | 0.00 | 0.28 | 0.28 | 95 | 1012.8 |
| 20260503013512 | 49 | 182 | 0.0 | 0.0 | 0.00 | 0.28 | 0.28 | 95 | 1013.1 |
| 20260503013009 | 49 | 182 | 0.0 | 0.0 | 0.00 | 0.28 | 0.28 | 95 | 1013.0 |
| 20260503012507 | 49 | 182 | 0.0 | 0.0 | 0.00 | 0.28 | 0.28 | 94 | 1012.8 |
| 20260503012003 | 49 | 182 | 0.0 | 0.0 | 0.00 | 0.28 | 0.28 | 94 | 1012.8 |
| 20260503011500 | 50 | 182 | 0.0 | 0.0 | 0.00 | 0.28 | 0.28 | 94 | 1012.7 |
| 20260503010957 | 50 | 182 | 0.0 | 0.0 | 0.00 | 0.28 | 0.28 | 94 | 1012.6 |
| 20260503010453 | 50 | 182 | 0.0 | 0.0 | 0.00 | 0.28 | 0.28 | 94 | 1012.5 |
| 20260503005950 | 50 | 182 | 0.0 | 0.0 | 0.00 | 0.28 | 0.28 | 94 | 1012.4 |
| 20260503005447 | 50 | 182 | 0.0 | 0.0 | 0.00 | 0.28 | 0.28 | 93 | 1012.4 |
| 20260503004944 | 51 | 182 | 0.0 | 0.0 | 0.00 | 0.28 | 0.28 | 93 | 1012.2 |
| 20260503004441 | 51 | 182 | 0.0 | 0.0 | 0.00 | 0.28 | 0.28 | 93 | 1012.1 |
| 20260503003939 | 51 | 182 | 0.0 | 0.0 | 0.00 | 0.28 | 0.28 | 93 | 1012.1 |
| 20260503003435 | 52 | 182 | 0.0 | 0.0 | 0.00 | 0.28 | 0.28 | 93 | 1012.0 |
| 20260503002932 | 52 | 182 | 0.0 | 0.0 | 0.00 | 0.28 | 0.28 | 92 | 1012.0 |
| 20260503002429 | 52 | 182 | 0.0 | 0.0 | 0.00 | 0.28 | 0.28 | 92 | 1011.8 |
| 20260503001926 | 53 | 182 | 0.0 | 0.0 | 0.00 | 0.28 | 0.28 | 92 | 1011.9 |
| 20260503001422 | 53 | 182 | 0.0 | 0.0 | 0.00 | 0.28 | 0.28 | 92 | 1011.7 |
| 20260503000920 | 53 | 182 | 0.0 | 0.0 | 0.00 | 0.28 | 0.28 | 92 | 1011.6 |
| 20260503000417 | 53 | 182 | 0.0 | 0.0 | 0.00 | 0.28 | 0.28 | 92 | 1011.5 |
| 20260502235914 | 53 | 182 | 0.0 | 0.0 | 0.00 | 0.28 | 0.28 | 92 | 1011.4 |
| 20260502235411 | 54 | 182 | 0.0 | 0.0 | 0.00 | 0.28 | 0.28 | 91 | 1011.4 |
| 20260502234908 | 54 | 182 | 0.0 | 0.0 | 0.00 | 0.28 | 0.28 | 91 | 1011.3 |
| 20260502234405 | 54 | 182 | 0.0 | 0.0 | 0.00 | 0.28 | 0.28 | 91 | 1011.0 |
| 20260502233902 | 54 | 181 | 0.0 | 0.0 | 0.00 | 0.28 | 0.28 | 91 | 1011.2 |
| 20260502233357 | 54 | 181 | 0.0 | 0.0 | 0.00 | 0.28 | 0.28 | 90 | 1011.3 |
| 20260502232855 | 54 | 181 | 0.0 | 0.0 | 0.00 | 0.28 | 0.28 | 90 | 1011.2 |
| 20260502232351 | 54 | 181 | 0.0 | 0.0 | 0.00 | 0.28 | 0.28 | 89 | 1011.3 |
| 20260502231847 | 54 | 181 | 0.0 | 0.0 | 0.00 | 0.28 | 0.28 | 89 | 1011.2 |
| 20260502231345 | 54 | 181 | 0.0 | 0.0 | 0.00 | 0.28 | 0.28 | 89 | 1011.2 |
| 20260502230843 | 54 | 181 | 0.0 | 0.0 | 0.00 | 0.28 | 0.28 | 89 | 1011.3 |
| 20260502230341 | 54 | 181 | 0.0 | 0.0 | 0.00 | 0.28 | 0.28 | 89 | 1011.2 |
| 20260502225838 | 54 | 181 | 0.0 | 0.0 | 0.00 | 0.28 | 0.28 | 88 | 1011.1 |
| 20260502225334 | 55 | 181 | 0.0 | 0.0 | 0.00 | 0.28 | 0.28 | 88 | 1011.0 |
| 20260502224831 | 55 | 181 | 0.0 | 0.0 | 0.00 | 0.28 | 0.28 | 88 | 1011.3 |
| 20260502224327 | 55 | 181 | 0.0 | 0.0 | 0.00 | 0.28 | 0.28 | 88 | 1011.0 |
| 20260502223825 | 55 | 181 | 0.0 | 0.0 | 0.00 | 0.28 | 0.28 | 87 | 1010.9 |
| 20260502223323 | 55 | 181 | 0.0 | 0.0 | 0.00 | 0.28 | 0.28 | 87 | 1011.3 |
| 20260502222821 | 55 | 181 | 0.0 | 0.0 | 0.00 | 0.28 | 0.28 | 87 | 1011.1 |
| 20260502222318 | 55 | 181 | 0.0 | 0.0 | 0.00 | 0.28 | 0.28 | 87 | 1011.2 |
| 20260502221814 | 55 | 181 | 0.0 | 0.0 | 0.00 | 0.28 | 0.28 | 87 | 1011.0 |
| 20260502221310 | 55 | 186 | 0.0 | 0.0 | 0.00 | 0.28 | 0.28 | 87 | 1011.2 |
| 20260502220807 | 55 | 186 | 0.0 | 0.0 | 0.00 | 0.28 | 0.28 | 87 | 1011.1 |
| 20260502220303 | 55 | 186 | 0.0 | 0.0 | 0.00 | 0.28 | 0.28 | 87 | 1010.7 |
| 20260502215800 | 55 | 162 | 0.0 | 0.0 | 0.00 | 0.28 | 0.28 | 86 | 1010.7 |
| 20260502215257 | 55 | 200 | 0.0 | 0.0 | 0.00 | 0.28 | 0.28 | 87 | 1010.9 |
| 20260502214754 | 55 | 188 | 0.0 | 0.0 | 0.00 | 0.28 | 0.28 | 87 | 1010.7 |
| 20260502214250 | 55 | 187 | 0.0 | 0.0 | 0.00 | 0.28 | 0.28 | 86 | 1010.7 |
| 20260502213748 | 55 | 195 | 0.0 | 0.0 | 0.00 | 0.28 | 0.28 | 86 | 1010.9 |
| 20260502213245 | 54 | 171 | 0.0 | 0.9 | 0.00 | 0.28 | 0.28 | 85 | 1010.7 |
| 20260502212743 | 55 | 184 | 0.0 | 0.0 | 0.00 | 0.28 | 0.28 | 87 | 1010.9 |
| 20260502212236 | 55 | 188 | 0.0 | 0.0 | 0.00 | 0.28 | 0.28 | 86 | 1010.8 |
| 20260502211731 | 55 | 61 | 1.7 | 1.7 | 0.00 | 0.28 | 0.28 | 85 | 1010.7 |
| 20260502211229 | 55 | 182 | 0.0 | 0.9 | 0.00 | 0.28 | 0.28 | 86 | 1010.8 |
| 20260502210726 | 55 | 189 | 0.0 | 0.0 | 0.00 | 0.28 | 0.28 | 86 | 1010.8 |
| 20260502210223 | 55 | 198 | 0.0 | 0.0 | 0.00 | 0.28 | 0.28 | 86 | 1010.8 |
| 20260502205720 | 55 | 188 | 0.9 | 0.9 | 0.00 | 0.28 | 0.28 | 86 | 1010.9 |
| 20260502205216 | 55 | 187 | 0.0 | 0.9 | 0.00 | 0.28 | 0.28 | 86 | 1010.8 |
| 20260502204714 | 55 | 116 | 0.9 | 1.7 | 0.00 | 0.28 | 0.28 | 85 | 1010.9 |
| 20260502204211 | 54 | 187 | 0.9 | 1.7 | 0.00 | 0.28 | 0.28 | 86 | 1011.0 |
| 20260502203709 | 54 | 153 | 0.9 | 0.9 | 0.00 | 0.28 | 0.28 | 86 | 1011.0 |
| 20260502203206 | 54 | 238 | 1.7 | 1.7 | 0.00 | 0.28 | 0.28 | 86 | 1011.1 |
| 20260502202700 | 55 | 70 | 0.9 | 1.7 | 0.00 | 0.28 | 0.28 | 87 | 1010.7 |
| 20260502202159 | 55 | 190 | 0.9 | 0.9 | 0.00 | 0.28 | 0.28 | 87 | 1011.0 |
| 20260502201656 | 55 | 178 | 2.6 | 2.6 | 0.00 | 0.28 | 0.28 | 87 | 1011.0 |
| 20260502201152 | 55 | 101 | 0.9 | 0.9 | 0.00 | 0.28 | 0.28 | 87 | 1011.0 |
| 20260502200648 | 55 | 186 | 0.9 | 1.7 | 0.00 | 0.28 | 0.28 | 87 | 1011.0 |
| 20260502200144 | 54 | 45 | 2.6 | 4.3 | 0.00 | 0.28 | 0.28 | 87 | 1010.8 |
| 20260502195643 | 55 | 197 | 0.0 | 0.9 | 0.00 | 0.28 | 0.28 | 88 | 1010.8 |
| 20260502195139 | 55 | 117 | 2.6 | 2.6 | 0.00 | 0.28 | 0.28 | 88 | 1011.0 |
| 20260502194636 | 55 | 42 | 0.9 | 1.7 | 0.00 | 0.28 | 0.28 | 88 | 1011.0 |
| 20260502194132 | 54 | 141 | 0.9 | 1.7 | 0.00 | 0.28 | 0.28 | 88 | 1011.1 |
| 20260502193623 | 55 | 187 | 0.9 | 0.9 | 0.00 | 0.28 | 0.28 | 88 | 1011.0 |
| 20260502193120 | 54 | 148 | 0.9 | 0.9 | 0.00 | 0.28 | 0.28 | 88 | 1011.1 |
| 20260502192616 | 54 | 143 | 0.9 | 0.9 | 0.00 | 0.28 | 0.28 | 89 | 1011.5 |
| 20260502192114 | 54 | 166 | 0.9 | 0.9 | 0.00 | 0.28 | 0.28 | 88 | 1011.4 |
| 20260502191610 | 54 | 19 | 1.7 | 1.7 | 0.00 | 0.28 | 0.28 | 88 | 1011.5 |
| 20260502191108 | 53 | 106 | 1.7 | 1.7 | 0.00 | 0.28 | 0.28 | 89 | 1011.7 |
| 20260502190605 | 54 | 212 | 1.7 | 1.7 | 0.00 | 0.28 | 0.28 | 90 | 1011.5 |
| 20260502185556 | 53 | 83 | 2.6 | 4.3 | 0.00 | 0.28 | 0.28 | 91 | 1011.6 |
| 20260502185053 | 53 | 78 | 2.6 | 2.6 | 0.00 | 0.28 | 0.28 | 92 | 1011.4 |
| 20260502184550 | 54 | 64 | 1.7 | 2.6 | 0.00 | 0.28 | 0.28 | 93 | 1011.5 |
| 20260502184045 | 54 | 154 | 0.9 | 0.9 | 0.00 | 0.28 | 0.28 | 93 | 1011.7 |
| 20260502183542 | 53 | 221 | 0.9 | 0.9 | 0.00 | 0.28 | 0.28 | 93 | 1011.6 |
| 20260502183038 | 53 | 191 | 0.0 | 0.9 | 0.00 | 0.28 | 0.28 | 94 | 1011.6 |
| 20260502182533 | 53 | 176 | 0.9 | 1.7 | 0.00 | 0.28 | 0.28 | 94 | 1011.8 |
| 20260502182029 | 53 | 47 | 2.6 | 2.6 | 0.00 | 0.28 | 0.28 | 94 | 1011.8 |
| 20260502181528 | 53 | 70 | 1.7 | 1.7 | 0.00 | 0.28 | 0.28 | 94 | 1011.8 |
| 20260502181026 | 53 | 136 | 0.9 | 0.9 | 0.00 | 0.28 | 0.28 | 94 | 1012.0 |
| 20260502180522 | 53 | 190 | 0.0 | 0.0 | 0.00 | 0.28 | 0.28 | 94 | 1012.1 |
| 20260502170436 | 52 | 311 | 1.7 | 2.6 | 0.00 | 0.26 | 0.26 | 95 | 1012.1 |
| 20260502163919 | 52 | 159 | 1.7 | 2.6 | 0.07 | 0.25 | 0.25 | 95 | 1012.1 |
| 20260502163415 | 52 | 74 | 2.6 | 2.6 | 0.07 | 0.25 | 0.25 | 95 | 1012.1 |
| 20260502162913 | 52 | 170 | 1.7 | 1.7 | 0.05 | 0.24 | 0.24 | 95 | 1012.5 |
| 20260502162409 | 52 | 156 | 0.9 | 0.9 | 0.05 | 0.24 | 0.24 | 95 | 1013.0 |
| 20260502161907 | 52 | 106 | 0.9 | 1.7 | 0.00 | 0.23 | 0.23 | 95 | 1013.2 |
| 20260502161403 | 52 | 239 | 0.9 | 1.7 | 0.07 | 0.23 | 0.23 | 95 | 1013.2 |
| 20260502160901 | 52 | 172 | 0.0 | 0.9 | 0.05 | 0.22 | 0.22 | 95 | 1012.7 |
| 20260502160359 | 52 | 356 | 1.7 | 2.6 | 0.05 | 0.22 | 0.22 | 95 | 1012.6 |
| 20260502151843 | 52 | 181 | 1.7 | 1.7 | 0.00 | 0.19 | 0.19 | 95 | 1012.5 |
| 20260502151340 | 53 | 235 | 1.7 | 1.7 | 0.00 | 0.19 | 0.19 | 95 | 1012.5 |
| 20260502150837 | 53 | 194 | 0.0 | 0.0 | 0.07 | 0.19 | 0.19 | 95 | 1012.7 |
| 20260502150334 | 52 | 171 | 0.0 | 0.9 | 0.07 | 0.19 | 0.19 | 95 | 1012.7 |
| 20260502130722 | 52 | 269 | 0.9 | 0.9 | 0.00 | 0.11 | 0.11 | 95 | 1011.7 |
| 20260502130219 | 52 | 279 | 1.7 | 1.7 | 0.05 | 0.11 | 0.11 | 94 | 1011.9 |
| 20260502123706 | 52 | 323 | 2.6 | 4.3 | 0.05 | 0.09 | 0.09 | 94 | 1011.6 |
| 20260502123202 | 52 | 334 | 1.7 | 1.7 | 0.00 | 0.08 | 0.08 | 94 | 1011.5 |
| 20260502122658 | 52 | 240 | 1.7 | 1.7 | 0.07 | 0.08 | 0.08 | 94 | 1011.3 |
| 20260502122155 | 52 | 233 | 0.9 | 0.9 | 0.07 | 0.08 | 0.08 | 94 | 1011.3 |
| 20260502121653 | 52 | 199 | 0.9 | 0.9 | 0.05 | 0.07 | 0.07 | 93 | 1011.4 |
| 20260502121151 | 52 | 258 | 1.7 | 1.7 | 0.05 | 0.07 | 0.07 | 93 | 1011.3 |
| 20260502120647 | 52 | 331 | 2.6 | 2.6 | 0.00 | 0.06 | 0.06 | 93 | 1011.4 |
| 20260502120144 | 52 | 222 | 0.9 | 1.7 | 0.07 | 0.06 | 0.06 | 93 | 1011.4 |
| 20260502115642 | 52 | 221 | 0.9 | 0.9 | 0.07 | 0.06 | 0.06 | 92 | 1011.5 |
| 20260502115137 | 53 | 193 | 1.7 | 1.7 | 0.05 | 0.05 | 0.05 | 92 | 1011.7 |
| 20260502114633 | 53 | 211 | 0.9 | 0.9 | 0.12 | 0.05 | 0.05 | 92 | 1011.3 |
| 20260502114131 | 53 | 196 | 0.0 | 0.9 | 0.07 | 0.04 | 0.04 | 91 | 1011.8 |
| 20260502113628 | 53 | 199 | 0.9 | 1.7 | 0.00 | 0.03 | 0.03 | 91 | 1011.6 |
| 20260502113127 | 53 | 227 | 0.9 | 0.9 | 0.00 | 0.03 | 0.03 | 91 | 1011.5 |
| 20260502112624 | 53 | 247 | 1.7 | 1.7 | 0.07 | 0.03 | 0.03 | 90 | 1011.7 |
| 20260502112121 | 53 | 258 | 1.7 | 1.7 | 0.00 | 0.02 | 0.02 | 90 | 1011.8 |
| 20260502111619 | 53 | 306 | 2.6 | 2.6 | 0.00 | 0.02 | 0.02 | 90 | 1011.7 |
| 20260502111116 | 53 | 205 | 0.9 | 0.9 | 0.00 | 0.02 | 0.02 | 90 | 1012.0 |
| 20260502110614 | 53 | 248 | 0.9 | 0.9 | 0.05 | 0.02 | 0.02 | 90 | 1011.9 |
| 20260502110111 | 53 | 198 | 1.7 | 2.6 | 0.05 | 0.02 | 0.02 | 90 | 1012.0 |
| 20260502105608 | 53 | 351 | 4.3 | 5.2 | 0.00 | 0.01 | 0.01 | 90 | 1012.1 |
| 20260502105105 | 53 | 268 | 1.7 | 1.7 | 0.00 | 0.01 | 0.01 | 91 | 1011.9 |
| 20260502104603 | 53 | 211 | 0.0 | 0.9 | 0.07 | 0.01 | 0.01 | 91 | 1011.9 |
| 20260502104100 | 54 | 326 | 2.6 | 2.6 | 0.07 | 0.01 | 0.01 | 91 | 1012.0 |
| 20260502103557 | 54 | 277 | 0.9 | 1.7 | 0.00 | 0.00 | 0.00 | 91 | 1011.8 |
| 20260502103056 | 54 | 323 | 2.6 | 2.6 | 0.00 | 0.00 | 0.00 | 91 | 1012.1 |
| 20260502102551 | 54 | 306 | 0.9 | 1.7 | 0.00 | 0.00 | 0.00 | 91 | 1012.0 |
| 20260502102049 | 54 | 327 | 3.5 | 4.3 | 0.00 | 0.00 | 0.00 | 91 | 1011.9 |
| 20260502101547 | 54 | 249 | 1.7 | 1.7 | 0.00 | 0.00 | 0.00 | 91 | 1011.9 |
| 20260502101045 | 54 | 1 | 2.6 | 4.3 | 0.00 | 0.00 | 0.00 | 91 | 1012.0 |
| 20260502100543 | 54 | 231 | 1.7 | 1.7 | 0.00 | 0.00 | 0.00 | 91 | 1012.1 |
| 20260502091518 | 53 | 331 | 2.6 | 2.6 | 0.00 | 0.00 | 0.00 | 95 | 1011.9 |
| 20260502091015 | 53 | 243 | 0.9 | 0.9 | 0.00 | 0.00 | 0.00 | 95 | 1011.9 |
| 20260502090512 | 53 | 247 | 1.7 | 1.7 | 0.00 | 0.00 | 0.00 | 95 | 1011.8 |
| 20260502071406 | 53 | 171 | 0.0 | 0.0 | 0.00 | 0.00 | 0.00 | 95 | 1010.7 |
| 20260502070905 | 53 | 171 | 0.0 | 0.0 | 0.00 | 0.00 | 0.00 | 95 | 1010.8 |
| 20260502070402 | 53 | 171 | 0.0 | 0.0 | 0.00 | 0.00 | 0.00 | 95 | 1010.8 |
| 20260502065901 | 52 | 172 | 0.0 | 0.0 | 0.00 | 0.00 | 0.00 | 95 | 1010.9 |
| 20260502065358 | 53 | 172 | 0.0 | 0.0 | 0.00 | 0.00 | 0.00 | 95 | 1011.0 |
| 20260502064856 | 53 | 172 | 0.0 | 0.0 | 0.00 | 0.00 | 0.00 | 95 | 1010.9 |
| 20260502064354 | 53 | 172 | 0.0 | 0.0 | 0.00 | 0.00 | 0.00 | 95 | 1011.2 |
| 20260502063850 | 53 | 172 | 0.0 | 0.0 | 0.00 | 0.00 | 0.00 | 95 | 1011.1 |
| 20260502063349 | 53 | 172 | 0.0 | 0.0 | 0.00 | 0.00 | 0.00 | 95 | 1011.0 |